Rome Urbe AFB, Italy

1:46 PM CET on January 16, 2018 (GMT +0100)
Urbe

Weather History for LIRU - October, 2012

Change the Weather History Date:

Monday, October 15, 2012

  Actual Average Record
Temperature  
Mean Temperature 68 °F -  
Max Temperature 77 °F 68 °F 82 °F (2014)
Min Temperature 60 °F 47 °F 42 °F (2007)
Cooling Degree Days 4    
Growing Degree Days 18 (Base 50)    
Moisture  
Dew Point 62 °F    
Average Humidity 85    
Maximum Humidity 100    
Minimum Humidity 64    
Precipitation  
Precipitation 0.00 in 0.15 in - ()
Sea Level Pressure  
Sea Level Pressure 29.70 in    
Wind  
Wind Speed 7 mph ()    
Max Wind Speed 20 mph    
Max Gust Speed 45 mph    
Visibility 4.8 miles    
Events Rain , Thunderstorm    
Averages and records for this station are not official NWS values.
T = Trace of Precipitation, MM = Missing Value Source: Averaged Metar Reports

Daily Weather History Graph

Daily Weather History Graph

Search for Another Location

Airport or City:

Trip Planner

Search our weather history database for the weather conditions in past years. The results will help you decide how hot, cold, wet, or windy it might be!

Date:

Astronomy

Oct. 15, 2012 Rise Set
Actual Time 7:22 AM CEST 6:28 PM CEST
Civil Twilight 6:54 AM CEST 6:56 PM CEST
Nautical Twilight 6:22 AM CEST 7:28 PM CEST
Astronomical Twilight 5:49 AM CEST 8:00 PM CEST
Moon 7:13 AM CEST (10/15) 6:14 PM CEST (10/15)
Length of Visible Light 12h 01m
Length of Day
11h 05m
Waning Crescent, 0% of the Moon is Illuminated
Oct 15
Waning Crescent
Oct 15
New
Oct 22
First Quarter
Oct 29
Full
Nov 7
Last Quarter

Hourly Weather History & Observations

Time (CEST) Temp. Dew Point Humidity Pressure Visibility Wind Dir Wind Speed Gust Speed Precip Events Conditions
7:25 AM 60.8 °F 57.2 °F 88% 29.71 in 6.2 mi Variable 3.5 mph - N/A   Mostly Cloudy
7:50 AM 60.8 °F 59.0 °F 94% 29.71 in 6.2 mi NE 6.9 mph - N/A   Mostly Cloudy
8:50 AM 62.6 °F 60.8 °F 94% 29.74 in 6.2 mi Calm Calm - N/A   Scattered Clouds
9:45 AM 64.4 °F 62.6 °F 94% 29.74 in 1.6 mi SE 4.6 mph - N/A Rain , Thunderstorm Heavy Thunderstorms and Rain
9:50 AM 66.2 °F 59.0 °F 78% 29.71 in 1.9 mi SE 5.8 mph - N/A Rain Heavy Rain
9:55 AM 62.6 °F 62.6 °F 100% 29.71 in 4.3 mi West 6.9 mph - N/A Rain Heavy Rain Showers
10:00 AM 64.4 °F 62.6 °F 94% 29.74 in 5.0 mi SW 4.6 mph - N/A Rain Heavy Rain
10:10 AM 64.4 °F 64.4 °F 100% 29.74 in 6.2 mi Variable 2.3 mph - N/A   Mostly Cloudy
10:50 AM 69.8 °F 66.2 °F 88% 29.71 in 6.2 mi South 4.6 mph - N/A   Mostly Cloudy
11:50 AM 77.0 °F 66.2 °F 69% 29.71 in 6.2 mi SSW 10.4 mph - N/A   Scattered Clouds
12:50 PM 71.6 °F 59.0 °F 64% 29.71 in 6.2 mi SSW 13.8 mph - N/A   Mostly Cloudy
1:50 PM 73.4 °F 60.8 °F 65% 29.71 in 6.2 mi SSW 12.7 mph - N/A   Mostly Cloudy
2:50 PM 73.4 °F 62.6 °F 69% 29.68 in 6.2 mi SSW 13.8 mph 25.3 mph N/A   Scattered Clouds
3:50 PM 73.4 °F 62.6 °F 69% 29.68 in 6.2 mi South 13.8 mph - N/A   Scattered Clouds
4:50 PM 71.6 °F 62.6 °F 73% 29.68 in 6.2 mi SSW 11.5 mph - N/A   Scattered Clouds
5:50 PM 71.6 °F 64.4 °F 78% 29.65 in 6.2 mi South 12.7 mph - N/A   Scattered Clouds
6:50 PM 71.6 °F 64.4 °F 78% 29.65 in 6.2 mi SSE 13.8 mph - N/A Rain Light Rain
6:54 PM 68.0 °F 64.4 °F 88% 29.65 in 2.5 mi South 13.8 mph - N/A Rain , Thunderstorm Thunderstorms and Rain
7:18 PM 68.0 °F 64.4 °F 88% 29.65 in 3.7 mi SSE 15.0 mph - N/A Thunderstorm Thunderstorm
7:50 PM 68.0 °F 64.4 °F 88% 29.65 in 3.7 mi South 13.8 mph - N/A Thunderstorm Thunderstorm
7:57 PM 64.4 °F 57.2 °F 77% 29.68 in 3.7 mi South 19.6 mph 44.9 mph N/A Rain , Thunderstorm Thunderstorms and Rain
8:03 PM 62.6 °F 57.2 °F 82% 29.71 in 0.6 mi South 19.6 mph 44.9 mph N/A Rain , Thunderstorm Heavy Thunderstorms and Rain
8:35 PM 60.8 °F 60.8 °F 100% 29.71 in 3.1 mi Variable 3.5 mph - N/A Rain , Thunderstorm Thunderstorms and Rain
8:50 PM 60.8 °F 60.8 °F 100% 29.71 in 3.1 mi Calm Calm - N/A Rain , Thunderstorm Thunderstorms and Rain
9:17 PM 60.8 °F 60.8 °F 100% 29.74 in 5.0 mi SE 4.6 mph - N/A   Scattered Clouds
9:50 PM 60.8 °F 60.8 °F 100% 29.74 in 5.0 mi Variable 3.5 mph - N/A Rain Light Rain